Dewpoint
2 2 1 1 1 2 2 1 0 0 -0 -1 1 2 2 2 2 1 4 1 5 5 1 6 4 8 9 9 7 5 6 7 6 4 2 -1 -0 -1 -1 -1 -3 -3 -1 12 15
2 1 1 1 1 1 1 1 -0 1 2 2 2 0 1 1 2 3 3 3 2 6 7 7 4 7 8 8 8 5 5 4 2 1 1 -1 -1 -1 -0 -1 -2 -3 4 9 11
1 2 2 2 2 1 2 2 1 2 2 1 1 1 -0 1 2 1 2 2 3 6 7 7 4 5 6 7 7 5 6 2 1 -0 0 -0 -1 -1 -0 -0 -2 -3 -1 3 10
2 2 1 0 1 -1 -1 -1 -1 -0 -0 0 0 -0 -0 1 2 4 3 4 3 4 7 7 4 3 6 7 6 5 4 3 -1 1 1 -0 -1 -1 -2 -3 -3 -4 -4 2 7
1 1 1 0 1 1 -0 -1 0 -1 -0 1 -0 0 1 2 2 2 1 1 3 5 7 7 4 2 4 5 6 6 3 2 1 1 2 -0 -1 -2 -3 -3 -1 1 1 3 7
2 2 1 1 1 0 1 -1 -0 -1 -2 -1 -1 -0 1 1 -1 -2 -2 -1 2 4 5 6 6 1 2 3 4 5 5 2 0 1 2 2 1 -0 -3 -2 0 1 1 1 2
1 1 1 1 1 0 1 1 -1 -1 0 -1 -1 -0 2 0 -1 -2 -2 -2 -2 3 4 6 6 1 1 3 2 4 6 5 2 1 2 2 3 2 -1 -0 -0 0 0 0 1
1 1 0 1 0 -1 -0 0 0 -0 -1 -2 -1 1 1 -1 -1 -1 -2 -1 -1 -1 1 4 6 6 0 2 2 5 5 8 4 2 1 1 4 2 0 1 0 -0 -0 -1 -1
-0 1 1 1 -0 -1 -2 -1 1 -0 -2 -1 0 1 -1 -1 -1 -2 -2 -3 -3 -1 1 3 6 7 4 4 6 7 8 7 4 3 2 2 3 -1 -1 0 0 -1 -1 -3 -3
-0 1 1 0 -2 -3 -3 -2 0 1 -1 1 1 1 -2 -3 -3 -3 -3 -2 -1 0 2 5 7 7 6 5 8 6 6 4 4 3 2 3 3 -2 -3 -2 -1 -2 -2 -3 -4
0 1 0 1 -1 -1 -1 0 1 1 1 -1 -2 -2 -3 -3 -3 -3 -2 0 0 1 4 6 7 7 6 4 5 5 4 3 1 -1 3 3 3 1 -1 -1 -1 -1 -2 -3 -3
-0 1 -0 -1 -1 1 -2 0 1 0 1 -0 -2 -2 -2 -3 -3 -4 -4 -0 1 2 2 5 7 5 2 3 5 5 4 3 0 1 2 2 2 0 -1 -2 -1 -1 -2 -3 -4
1 -0 -1 -2 -0 1 -1 0 1 -0 -1 -2 -3 -2 -3 -3 -3 -3 -1 -1 -0 2 3 5 4 3 5 4 4 4 5 5 1 1 1 0 1 1 -2 -2 -2 -1 -1 -2 -3
1 1 -1 -2 1 -0 0 -1 -1 -0 1 0 1 -1 -1 -2 -3 -3 -1 1 2 2 1 5 3 4 5 6 4 6 3 4 1 3 5 1 3 0 -0 -0 -1 -2 -3 -4 -3
1 1 -3 -1 0 -0 -0 -1 -0 0 2 0 -0 0 -1 -1 1 1 -2 2 2 4 6 6 5 6 6 6 6 6 6 3 4 3 2 3 3 1 -1 -1 -2 -4 -3 -1 -1
-4 -3 -3 -1 2 -1 0 0 0 3 3 2 2 1 2 1 2 3 2 2 2 5 4 5 4 4 5 4 4 5 6 6 4 4 8 3 2 1 -1 -2 -3 -2 -0 -0 0
-4 -1 -1 0 0 -0 0 -1 3 3 1 2 3 2 2 4 3 2 3 4 5 6 6 4 5 4 3 6 5 4 6 8 8 8 6 2 3 1 -3 -3 -2 -1 0 1 2
-3 0 1 2 1 1 1 2 3 2 3 2 4 4 4 3 3 4 4 6 5 5 5 5 5 5 4 5 5 5 7 9 8 7 4 0 4 -1 -4 -3 -2 -1 2 2 3
-2 0 2 1 1 2 2 2 3 3 3 3 3 5 6 4 4 4 4 6 5 5 6 5 5 4 4 4 5 6 7 5 4 0 3 1 -1 -3 -5 -1 -0 -0 1 3 4
-2 2 2 1 2 2 4 3 3 1 2 3 4 3 5 3 4 4 3 2 2 -0 -0 3 6 5 4 4 4 6 3 5 7 6 5 0 -0 -0 -2 -1 -1 -1 0 3 4
0 2 1 1 3 3 4 4 4 2 2 4 3 1 -0 0 0 1 3 1 -1 -1 -0 1 4 6 5 6 6 6 6 3 2 3 5 2 -1 -4 -3 -3 -2 -1 -0 2 3
2 5 1 3 3 4 4 2 2 2 2 2 1 -0 -0 -0 1 1 3 1 -1 -1 1 1 3 6 5 1 -0 1 3 2 4 4 4 4 -1 -5 -4 -3 -1 -1 -1 2 3
2 2 3 3 4 4 2 3 1 1 0 0 -0 -1 -2 -1 2 1 1 -1 -1 0 1 0 4 5 4 3 1 2 1 0 2 5 6 5 -0 -4 -3 -3 -3 -2 -1 2 3
2 3 2 2 1 2 3 3 2 1 0 -1 -1 -2 -2 -0 -1 1 2 1 -0 -1 -1 -1 2 4 4 4 3 3 2 2 3 5 4 3 -2 -2 -2 -3 -4 -3 -1 2 3
2 1 1 3 3 2 2 2 1 3 1 -1 -1 -0 -1 -0 -0 2 1 1 -0 -1 -2 1 2 2 0 0 1 4 3 3 1 2 2 1 -2 -3 -3 -3 -4 -0 0 2 3
1 1 1 1 1 1 1 1 3 1 2 1 1 -0 -0 2 1 1 -0 -1 -0 -1 -1 -1 3 2 3 0 1 2 2 2 2 1 0 -1 -0 -5 -5 -4 -1 -0 2 3 3
-1 0 1 1 1 1 2 1 3 2 2 2 2 2 2 1 -0 -1 -2 -1 -1 -1 0 0 2 3 4 1 2 3 2 2 2 0 0 2 -1 -2 -2 -2 -1 1 3 3 2
Wind_Speed
25 23 22 22 22 23 24 23 23 20 21 22 21 21 19 19 20 20 21 22 20 20 2 5 17 17 12 12 18 20 7 12 20 21 13 19 10 22 18 15 17 13 2 14 12
26 24 23 23 24 24 23 22 20 20 20 20 21 21 21 23 20 24 23 22 23 19 22 13 19 19 13 13 12 11 11 19 17 13 15 16 10 14 6 8 17 8 13 12 7
25 26 24 23 23 22 21 19 18 17 17 16 16 18 17 16 18 26 20 29 28 26 22 18 16 24 19 14 19 13 14 14 19 18 10 9 10 10 8 6 14 13 14 12 8
26 25 25 24 23 22 21 20 18 16 16 15 16 14 14 12 8 9 10 3 27 26 24 21 21 27 15 12 20 12 24 24 17 0 4 1 1 3 9 9 13 18 18 19 15
27 27 26 25 25 26 25 20 18 16 15 14 14 11 9 10 21 14 18 9 11 26 25 24 24 22 19 17 17 17 13 20 25 7 5 4 3 3 8 15 4 4 10 10 9
25 27 26 25 24 24 24 21 17 15 14 14 12 11 11 16 12 12 11 14 8 12 30 25 17 27 17 21 20 7 20 18 18 11 5 1 1 4 16 20 10 5 3 6 7
28 29 25 23 27 28 26 22 19 16 14 13 11 10 12 17 6 4 7 9 14 9 10 30 27 23 24 15 22 11 5 11 5 10 3 3 3 14 20 14 10 13 10 10 11
28 27 26 29 28 26 25 23 19 16 14 11 9 8 9 7 12 20 19 18 17 17 7 14 25 21 24 9 12 10 4 8 12 8 8 9 7 11 19 22 19 16 16 19 18
28 26 27 29 27 24 22 19 16 14 12 7 6 6 8 4 11 12 10 12 14 18 14 11 13 12 15 13 9 7 8 9 7 16 5 8 7 9 20 23 21 20 20 18 16
22 27 28 26 25 24 22 16 12 12 5 4 6 2 11 5 3 4 6 8 6 11 9 7 7 6 8 12 14 16 16 17 15 16 15 12 10 5 13 8 17 19 24 26 23
23 27 27 24 23 24 16 7 3 3 10 7 6 9 1 6 6 6 5 9 10 7 6 14 6 14 26 22 5 10 11 14 15 12 21 19 14 16 12 8 10 16 12 15 17
23 25 24 21 17 17 17 5 8 4 3 9 11 12 16 11 7 8 7 7 4 6 4 7 10 10 11 14 15 15 8 14 12 12 9 12 19 16 15 14 17 17 16 15 14
26 23 21 16 13 13 16 11 5 3 2 3 8 7 10 10 14 14 6 9 3 3 10 12 9 15 12 14 15 12 10 12 9 7 3 2 7 16 15 18 20 21 19 18 12
27 22 16 13 8 14 9 8 5 2 2 2 1 3 4 5 6 10 8 7 3 11 14 7 14 19 13 13 11 13 11 16 10 11 5 8 4 13 15 9 9 12 8 10 11
26 22 11 11 6 9 10 8 6 2 2 3 3 1 2 2 4 4 9 7 10 11 7 7 17 19 12 6 7 4 11 10 7 8 7 7 1 5 13 11 8 10 14 9 8
22 14 9 11 3 10 9 9 6 3 5 3 2 1 3 5 2 2 6 4 15 7 16 8 13 4 3 13 8 6 5 5 7 3 2 9 7 4 6 11 8 11 14 12 10
14 11 9 10 4 7 8 5 1 5 8 9 3 3 3 3 3 4 6 6 1 5 6 6 4 3 5 8 8 3 10 3 3 1 4 11 8 8 9 11 9 11 17 13 11
7 13 15 14 10 6 6 1 7 4 4 3 4 5 4 5 5 3 2 2 10 10 5 4 7 1 1 2 5 7 1 1 4 4 4 5 5 4 7 16 20 19 18 13 12
7 10 10 16 11 9 2 6 3 2 4 8 10 4 4 0 3 1 4 3 3 3 4 5 4 3 0 1 5 5 5 4 4 5 4 5 3 4 2 8 13 15 13 13 11
7 5 8 17 13 9 2 4 2 3 2 3 2 4 4 3 11 10 4 6 3 3 2 4 6 2 4 2 2 3 5 4 2 2 3 5 7 4 11 11 10 9 15 14 10
10 5 14 13 9 8 3 3 0 6 5 3 6 3 7 7 10 9 6 5 5 2 4 6 2 4 6 4 5 3 2 3 1 1 1 3 2 5 16 12 10 10 16 15 10
8 3 15 8 4 2 4 4 2 3 5 7 6 7 7 8 9 5 7 5 7 5 3 5 4 3 3 3 1 2 5 5 3 2 1 1 3 7 9 9 12 13 11 11 10
7 4 9 7 3 4 7 7 3 7 5 6 4 4 4 4 3 5 5 5 5 5 3 3 3 4 3 2 2 3 3 2 5 2 2 1 2 7 10 9 10 10 12 12 9
6 4 5 7 5 1 3 6 4 1 4 5 3 6 3 6 7 4 4 3 5 4 6 5 4 3 3 3 4 2 4 5 4 2 2 4 5 7 12 9 8 15 12 13 10
7 4 5 4 4 6 3 8 10 7 10 5 1 5 4 2 2 4 3 4 2 1 1 4 3 3 4 4 3 4 3 7 4 5 3 5 2 8 10 8 11 12 13 13 12
5 5 8 7 9 7 7 5 8 10 7 5 6 6 8 6 5 1 2 2 2 0 2 2 2 3 2 0 2 3 5 6 7 7 7 5 5 4 14 12 7 8 13 11 11
10 7 1 8 6 5 2 4 6 10 2 6 8 9 6 5 7 7 5 6 5 2 2 2 3 1 1 1 4 5 10 9 6 6 9 7 6 1 4 5 7 6 10 11 13
Wind_Direction
327 327 322 320 321 314 309 305 306 300 295 288 284 280 275 283 281 280 266 249 243 235 221 189 214 210 210 217 200 216 237 239 242 242 251 258 216 183 199 246 241 177 164 125 159
330 328 329 323 318 317 312 304 298 297 294 292 283 277 275 275 286 271 260 247 240 231 228 231 202 205 209 219 207 210 215 235 238 250 256 272 56 319 156 238 272 201 133 138 192
330 331 326 321 320 315 311 312 304 300 294 291 291 276 266 274 283 280 275 243 230 222 221 214 213 200 216 223 215 213 232 228 249 261 350 335 137 246 171 189 243 208 176 167 194
332 332 326 321 319 317 315 310 304 297 298 294 290 282 267 242 234 147 47 239 220 217 218 215 220 195 203 210 217 212 224 253 243 205 7 29 249 261 239 242 248 247 219 179 176
331 331 329 327 322 320 313 305 298 295 292 291 293 284 260 233 240 229 317 298 176 208 212 214 217 219 203 201 215 228 241 220 251 338 293 254 242 273 270 262 245 138 143 138 178
335 331 328 322 318 314 309 304 295 292 289 286 286 272 250 252 259 272 281 260 226 209 220 214 215 213 209 226 213 225 232 254 229 206 249 61 209 220 246 247 210 204 181 171 187
334 331 327 324 319 312 305 296 293 289 286 282 274 267 260 246 243 240 297 271 246 238 211 223 213 212 220 210 227 185 228 239 236 218 167 142 262 236 239 266 250 207 223 221 215
333 331 326 328 325 320 311 295 282 280 276 278 266 267 257 265 257 256 263 263 274 251 253 213 212 230 226 226 195 229 200 214 208 231 174 136 250 216 233 255 265 255 233 231 227
335 333 334 332 331 329 319 300 272 268 272 271 257 224 268 262 237 261 256 246 248 250 250 236 224 208 222 199 212 184 203 206 219 213 177 174 239 236 234 219 234 247 256 244 227
341 339 338 336 333 341 329 311 270 246 259 181 215 179 258 212 190 247 248 222 225 253 263 232 208 182 200 181 199 199 213 196 208 190 197 201 233 291 177 206 223 241 246 249 239
342 342 339 339 341 350 349 11 65 143 208 192 184 217 92 203 295 267 236 181 133 156 219 198 183 182 194 196 207 195 200 229 199 211 195 212 208 239 224 189 240 264 269 233 240
339 343 339 341 348 5 2 15 57 30 347 259 264 253 259 276 279 281 214 171 125 214 270 205 215 205 195 199 201 229 225 214 243 145 176 204 227 228 220 216 208 232 250 262 258
345 342 342 353 10 6 5 11 300 222 289 279 234 260 261 240 249 253 197 180 204 220 224 206 192 196 176 202 197 227 198 243 195 146 254 194 273 219 231 217 205 226 248 259 274
342 340 349 5 33 354 3 360 14 336 254 68 353 210 234 216 227 239 203 162 106 224 244 207 164 175 176 188 196 208 217 241 209 164 188 172 258 207 205 200 209 218 228 243 239
339 340 4 9 36 3 356 355 331 316 32 41 268 309 179 226 324 197 184 167 192 210 197 183 162 148 151 176 199 217 313 268 133 199 130 188 311 269 188 204 176 204 202 159 162
346 349 8 22 352 345 347 322 314 240 23 342 193 95 160 197 179 105 156 184 224 146 77 57 36 62 61 141 137 26 346 329 185 190 267 184 193 221 175 189 173 164 151 160 164
358 12 9 29 4 327 2 350 231 27 348 340 348 351 332 348 85 128 164 200 149 87 82 61 32 54 55 83 106 95 216 106 144 166 225 184 194 267 191 162 157 144 149 150 157
11 23 16 17 345 21 1 206 45 13 337 346 295 313 37 6 55 33 274 99 44 89 112 131 143 84 63 102 166 171 274 190 192 190 147 360 203 219 112 124 150 154 141 153 145
5 19 12 355 5 33 339 45 32 339 310 327 327 20 338 68 114 140 201 83 64 223 109 132 92 96 175 103 154 151 188 103 288 228 105 193 132 25 100 121 122 135 154 159 144
16 29 339 356 15 11 34 62 358 292 130 201 287 241 11 72 174 191 73 30 145 26 69 131 103 62 104 157 174 234 176 155 254 254 189 210 164 198 184 168 164 161 175 154 152
39 312 356 357 13 25 48 355 226 272 272 271 327 27 28 20 49 59 69 66 44 326 140 157 112 140 158 208 155 165 230 233 308 119 313 128 241 181 174 168 169 166 173 154 155
40 25 357 10 20 5 13 340 322 280 185 256 262 9 13 32 19 64 74 52 2 334 45 13 104 123 92 110 316 310 203 204 128 230 104 187 292 127 144 153 140 126 144 157 167
11 319 357 359 35 0 340 317 283 351 17 334 24 358 352 13 87 74 85 63 11 38 44 171 133 112 143 178 163 229 232 48 78 46 217 89 216 124 100 97 125 151 165 167 181
17 2 340 40 85 206 331 313 333 92 308 343 357 284 340 42 39 97 95 64 38 53 356 335 54 100 148 95 115 172 212 127 106 134 184 218 142 150 150 163 199 170 174 179 184
38 28 0 332 343 317 8 339 346 7 340 339 48 1 344 17 77 74 87 149 99 46 295 29 116 92 74 92 95 175 195 157 149 236 125 326 245 202 168 167 215 154 162 169 177
56 11 343 287 303 342 11 18 352 343 352 7 17 356 18 50 10 4 174 229 93 117 48 356 90 87 307 61 217 219 226 207 175 236 268 280 320 100 182 188 160 172 170 178 192
25 14 8 286 318 341 11 351 312 330 271 29 327 312 48 19 348 7 29 37 31 29 152 335 122 142 196 169 296 283 223 203 177 189 205 212 220 47 114 141 168 166 185 201 206
Height
1495 1491 1489 1487 1485 1483 1481 1479 1478 1477 1476 1475 1474 1474 1474 1474 1473 1473 1471 1473 1477 1480 1482 1484 1486 1489 1492 1492 1495 1500 1502 1501 1495 1490 1482 1476 1476 1480 1486 1491 1493 1495 1499 1504 1504
1493 1489 1486 1484 1481 1479 1477 1475 1473 1473 1471 1470 1469 1469 1470 1470 1469 1466 1468 1470 1472 1476 1479 1482 1484 1488 1490 1490 1492 1493 1496 1491 1485 1482 1481 1476 1477 1480 1486 1490 1491 1495 1497 1503 1503
1491 1487 1484 1481 1478 1476 1474 1471 1469 1468 1467 1466 1465 1465 1466 1467 1466 1457 1458 1460 1465 1471 1475 1479 1481 1485 1488 1489 1490 1490 1488 1487 1485 1484 1481 1478 1480 1486 1485 1491 1493 1494 1497 1501 1504
1489 1484 1480 1477 1474 1471 1470 1468 1466 1464 1463 1462 1461 1461 1462 1465 1464 1452 1454 1451 1459 1467 1471 1474 1476 1479 1484 1484 1484 1486 1485 1486 1483 1484 1484 1484 1485 1484 1484 1490 1494 1494 1494 1496 1503
1485 1480 1475 1473 1470 1468 1466 1463 1461 1460 1459 1458 1458 1458 1460 1460 1453 1451 1453 1454 1456 1463 1464 1469 1472 1473 1476 1480 1483 1482 1481 1482 1482 1486 1486 1485 1485 1486 1484 1490 1493 1491 1493 1497 1501
1481 1478 1473 1468 1465 1463 1461 1459 1457 1456 1455 1454 1455 1456 1457 1456 1452 1453 1453 1453 1456 1457 1460 1465 1467 1471 1473 1476 1479 1479 1481 1481 1481 1487 1486 1485 1487 1489 1489 1491 1492 1493 1495 1497 1501
1479 1473 1468 1464 1460 1457 1455 1454 1453 1452 1451 1451 1452 1453 1454 1452 1450 1451 1451 1452 1453 1456 1457 1463 1467 1469 1471 1473 1475 1478 1483 1482 1482 1483 1485 1487 1490 1487 1490 1490 1490 1492 1495 1497 1500
1475 1470 1465 1459 1454 1450 1449 1447 1447 1448 1447 1448 1449 1450 1448 1446 1447 1448 1450 1451 1452 1455 1457 1458 1462 1466 1467 1469 1472 1477 1482 1486 1481 1481 1484 1487 1491 1488 1490 1490 1490 1491 1493 1496 1498
1471 1467 1461 1454 1449 1444 1442 1440 1441 1443 1444 1445 1447 1449 1446 1443 1444 1444 1447 1450 1448 1452 1454 1458 1460 1464 1465 1468 1478 1476 1482 1485 1480 1479 1481 1485 1485 1483 1485 1488 1489 1490 1491 1493 1494
1467 1463 1458 1451 1445 1440 1438 1435 1435 1438 1441 1444 1446 1451 1444 1443 1443 1444 1445 1448 1448 1450 1454 1454 1455 1459 1461 1466 1471 1470 1475 1472 1476 1475 1478 1483 1485 1480 1482 1484 1486 1488 1489 1490 1491
1464 1459 1455 1449 1443 1440 1436 1434 1437 1439 1440 1439 1441 1440 1440 1442 1443 1443 1444 1445 1451 1458 1454 1450 1451 1449 1443 1449 1461 1465 1468 1469 1467 1465 1476 1478 1484 1481 1481 1482 1484 1484 1484 1485 1487
1462 1457 1453 1448 1443 1441 1440 1438 1439 1442 1441 1439 1440 1441 1440 1442 1443 1442 1443 1445 1449 1452 1453 1450 1441 1449 1453 1457 1463 1464 1464 1465 1461 1464 1473 1476 1477 1476 1476 1477 1480 1482 1483 1484 1485
1461 1455 1451 1447 1444 1444 1443 1442 1440 1441 1442 1438 1438 1438 1439 1440 1439 1440 1443 1443 1445 1447 1454 1444 1440 1451 1452 1456 1462 1463 1468 1470 1462 1471 1474 1474 1478 1471 1469 1471 1474 1478 1480 1481 1483
1460 1454 1449 1446 1444 1445 1445 1444 1444 1444 1442 1440 1437 1438 1438 1437 1436 1439 1440 1443 1445 1448 1449 1444 1438 1447 1451 1456 1461 1465 1461 1465 1458 1471 1485 1475 1487 1463 1463 1466 1469 1474 1477 1479 1481
1455 1452 1449 1445 1445 1444 1447 1445 1444 1444 1436 1437 1436 1436 1436 1437 1437 1435 1436 1442 1445 1440 1441 1438 1440 1446 1459 1463 1463 1467 1468 1460 1467 1470 1472 1479 1490 1457 1458 1464 1467 1471 1475 1477 1480
1455 1452 1449 1447 1445 1445 1445 1444 1444 1442 1436 1436 1434 1435 1436 1437 1436 1434 1438 1441 1437 1431 1425 1436 1442 1450 1455 1461 1466 1472 1472 1473 1471 1470 1484 1471 1480 1469 1461 1459 1464 1468 1472 1476 1479
1455 1453 1450 1447 1446 1443 1444 1445 1442 1437 1438 1437 1436 1437 1435 1427 1431 1432 1437 1436 1427 1431 1438 1447 1456 1461 1461 1466 1472 1476 1474 1473 1480 1484 1484 1458 1474 1460 1453 1452 1460 1466 1471 1475 1478
1455 1454 1452 1447 1444 1443 1442 1448 1439 1442 1443 1441 1434 1432 1432 1431 1436 1435 1432 1429 1431 1430 1437 1443 1461 1465 1465 1464 1467 1474 1468 1466 1467 1477 1472 1461 1472 1461 1451 1453 1460 1466 1470 1474 1477
1454 1453 1452 1448 1446 1443 1443 1447 1455 1454 1451 1445 1434 1434 1430 1432 1436 1438 1435 1430 1435 1432 1436 1450 1461 1466 1466 1465 1466 1471 1469 1473 1471 1456 1475 1470 1459 1460 1456 1458 1461 1465 1470 1473 1476
1453 1453 1453 1449 1446 1443 1443 1449 1454 1449 1449 1449 1440 1425 1423 1416 1428 1422 1422 1427 1430 1428 1427 1438 1454 1463 1466 1467 1470 1468 1465 1475 1471 1467 1460 1459 1457 1455 1461 1459 1461 1465 1468 1471 1474
1451 1457 1455 1451 1448 1446 1451 1455 1455 1449 1446 1443 1429 1424 1417 1415 1413 1416 1428 1432 1428 1428 1427 1431 1441 1461 1465 1462 1463 1469 1468 1459 1460 1459 1463 1469 1454 1439 1448 1453 1459 1462 1465 1469 1472
1457 1460 1458 1455 1454 1451 1450 1449 1449 1446 1445 1441 1435 1426 1423 1421 1422 1421 1432 1432 1433 1432 1431 1433 1443 1453 1452 1452 1453 1452 1451 1450 1471 1466 1467 1470 1466 1442 1449 1454 1457 1461 1464 1468 1470
1461 1461 1459 1456 1461 1458 1454 1449 1445 1443 1440 1437 1433 1431 1426 1426 1429 1428 1434 1437 1436 1435 1436 1434 1447 1458 1457 1457 1453 1454 1450 1448 1459 1463 1462 1472 1466 1446 1451 1456 1459 1462 1465 1467 1469
1466 1466 1463 1460 1461 1459 1456 1450 1442 1442 1440 1437 1434 1431 1426 1428 1426 1431 1434 1438 1437 1436 1436 1434 1441 1452 1462 1450 1451 1460 1452 1454 1465 1469 1459 1460 1453 1452 1454 1457 1459 1461 1463 1465 1467
1471 1476 1475 1466 1462 1458 1456 1453 1445 1444 1441 1438 1435 1434 1433 1431 1430 1435 1436 1438 1438 1438 1437 1437 1449 1448 1445 1446 1446 1452 1452 1456 1470 1460 1470 1454 1449 1448 1450 1453 1455 1457 1460 1463 1465
1475 1479 1477 1472 1463 1459 1456 1455 1456 1450 1445 1440 1439 1436 1433 1435 1438 1436 1435 1435 1435 1438 1437 1438 1450 1449 1458 1445 1447 1451 1448 1450 1456 1458 1456 1452 1451 1444 1447 1451 1453 1456 1458 1461 1463
1480 1479 1476 1470 1463 1460 1461 1459 1458 1454 1447 1445 1445 1441 1439 1443 1440 1438 1437 1436 1436 1437 1439 1440 1448 1453 1456 1447 1447 1455 1444 1446 1448 1450 1451 1457 1451 1446 1449 1451 1453 1455 1456 1459 1460